Location: Beuvrequen
(50.8014°N, 1.6652°E)
Time: 02:59:40
(UTC+00:00)

Lacrosse 4 Rocket - Pass Details

Date: 07 June 2022
Orbit: 541 x 611 km, 68.0° (Epoch: 04 July)

Event Time Altitude Azimuth Distance (km) Brightness Sun altitude
Exits shadow 00:36:39 18° 143° (SE) 1,411 3.0 -15.8°
Maximum altitude 00:38:15 23° 111° (ESE) 1,231 3.0 -15.8°
Drops below altitude 10° 00:41:33 10° 59° (ENE) 1,858 4.6 -15.7°
Sets 00:44:04 0° 45° (NE) 2,747 5.9 -15.6°
